QPF
0.00 0.00 0.00 0.00 0.00 0.00 0.00 0.00 0.00 0.00 0.00 0.00 0.00 0.00 0.00 0.00 0.00 0.00 0.00 0.00 0.00 0.00 0.00 0.00 0.00 0.00 0.00 0.00 0.00 0.00 0.00 0.00 0.00 0.00 0.00 0.00 0.00 0.00 0.00 0.00 0.00 0.00 0.00 0.00
0.00 0.00 0.00 0.00 0.00 0.00 0.00 0.00 0.00 0.00 0.00 0.00 0.00 0.00 0.00 0.00 0.00 0.00 0.00 0.00 0.00 0.00 0.00 0.00 0.00 0.00 0.00 0.00 0.00 0.00 0.00 0.00 0.00 0.00 0.00 0.00 0.00 0.00 0.00 0.00 0.00 0.00 0.00 0.00
0.00 0.00 0.00 0.00 0.00 0.00 0.00 0.00 0.00 0.00 0.00 0.00 0.00 0.00 0.00 0.00 0.00 0.00 0.00 0.00 0.00 0.00 0.00 0.00 0.00 0.00 0.00 0.00 0.00 0.00 0.00 0.00 0.00 0.00 0.00 0.00 0.00 0.00 0.00 0.00 0.00 0.00 0.00 0.00
0.00 0.00 0.00 0.00 0.00 0.00 0.00 0.00 0.00 0.00 0.00 0.00 0.00 0.00 0.00 0.00 0.00 0.00 0.00 0.00 0.00 0.00 0.00 0.00 0.00 0.00 0.00 0.00 0.00 0.00 0.00 0.00 0.00 0.00 0.00 0.00 0.00 0.00 0.00 0.00 0.00 0.00 0.00 0.00
0.00 0.00 0.00 0.00 0.00 0.00 0.00 0.00 0.00 0.00 0.00 0.00 0.00 0.00 0.00 0.00 0.00 0.00 0.00 0.00 0.00 0.00 0.00 0.00 0.00 0.00 0.00 0.00 0.00 0.00 0.00 0.00 0.00 0.00 0.00 0.00 0.00 0.00 0.00 0.00 0.00 0.00 0.00 0.00
0.00 0.00 0.00 0.00 0.00 0.00 0.00 0.00 0.00 0.00 0.00 0.00 0.00 0.00 0.00 0.00 0.00 0.00 0.00 0.00 0.00 0.00 0.00 0.00 0.00 0.00 0.00 0.00 0.00 0.00 0.00 0.00 0.00 0.00 0.00 0.00 0.00 0.00 0.00 0.00 0.00 0.00 0.00 0.00
0.00 0.00 0.00 0.00 0.00 0.00 0.00 0.00 0.00 0.00 0.00 0.00 0.00 0.00 0.00 0.00 0.00 0.00 0.00 0.00 0.00 0.00 0.00 0.00 0.00 0.00 0.00 0.00 0.00 0.00 0.00 0.00 0.00 0.00 0.00 0.00 0.00 0.00 0.00 0.00 0.00 0.00 0.00 0.00
0.00 0.00 0.00 0.00 0.00 0.00 0.00 0.00 0.00 0.00 0.00 0.00 0.00 0.00 0.00 0.00 0.00 0.00 0.00 0.00 0.00 0.00 0.00 0.00 0.00 0.00 0.00 0.00 0.00 0.00 0.00 0.00 0.00 0.00 0.00 0.00 0.00 0.00 0.00 0.00 0.00 0.00 0.00 0.00
0.00 0.00 0.00 0.00 0.00 0.00 0.00 0.00 0.00 0.00 0.00 0.00 0.00 0.00 0.00 0.00 0.00 0.00 0.00 0.00 0.00 0.00 0.00 0.00 0.00 0.00 0.00 0.00 0.00 0.00 0.00 0.00 0.00 0.00 0.00 0.00 0.00 0.00 0.00 0.00 0.00 0.00 0.00 0.00
0.00 0.00 0.00 0.00 0.00 0.00 0.00 0.00 0.00 0.00 0.01 0.00 0.00 0.00 0.00 0.00 0.00 0.00 0.00 0.00 0.00 0.00 0.00 0.00 0.00 0.00 0.00 0.00 0.00 0.00 0.00 0.00 0.00 0.00 0.00 0.00 0.00 0.00 0.00 0.00 0.00 0.00 0.00 0.00
0.02 0.04 0.02 0.00 0.00 0.00 0.00 0.00 0.00 0.00 0.01 0.01 0.01 0.00 0.00 0.00 0.00 0.00 0.00 0.00 0.00 0.00 0.00 0.00 0.00 0.00 0.00 0.00 0.00 0.00 0.00 0.00 0.00 0.00 0.00 0.00 0.00 0.00 0.00 0.00 0.00 0.00 0.00 0.00
0.09 0.20 0.19 0.03 0.00 0.00 0.00 0.00 0.00 0.00 0.01 0.01 0.02 0.01 0.00 0.00 0.00 0.00 0.00 0.00 0.00 0.00 0.00 0.00 0.00 0.00 0.00 0.00 0.00 0.00 0.00 0.00 0.00 0.00 0.00 0.00 0.00 0.00 0.00 0.00 0.00 0.00 0.00 0.00
0.11 0.20 0.27 0.12 0.01 0.00 0.00 0.00 0.00 0.01 0.02 0.02 0.02 0.01 0.00 0.00 0.00 0.00 0.00 0.00 0.00 0.00 0.00 0.00 0.00 0.00 0.00 0.00 0.00 0.00 0.00 0.00 0.00 0.00 0.00 0.00 0.00 0.00 0.00 0.00 0.00 0.00 0.00 0.00
0.11 0.15 0.21 0.18 0.04 0.01 0.02 0.02 0.01 0.03 0.06 0.06 0.03 0.01 0.00 0.00 0.00 0.00 0.00 0.00 0.00 0.00 0.00 0.00 0.00 0.00 0.00 0.00 0.00 0.00 0.00 0.00 0.00 0.00 0.00 0.00 0.00 0.00 0.00 0.00 0.00 0.00 0.00 0.00
0.04 0.08 0.07 0.07 0.05 0.05 0.06 0.06 0.04 0.04 0.05 0.08 0.06 0.03 0.04 0.05 0.04 0.02 0.01 0.00 0.00 0.00 0.00 0.00 0.00 0.00 0.00 0.00 0.00 0.00 0.00 0.00 0.00 0.00 0.00 0.00 0.00 0.00 0.00 0.00 0.00 0.00 0.00 0.00
0.02 0.06 0.07 0.07 0.05 0.06 0.09 0.09 0.06 0.04 0.03 0.04 0.06 0.08 0.10 0.08 0.04 0.03 0.02 0.01 0.00 0.00 0.00 0.00 0.00 0.00 0.00 0.00 0.00 0.00 0.00 0.00 0.00 0.00 0.00 0.00 0.00 0.00 0.00 0.00 0.00 0.00 0.00 0.00
0.01 0.02 0.04 0.03 0.01 0.02 0.05 0.05 0.04 0.03 0.03 0.03 0.07 0.16 0.16 0.06 0.02 0.02 0.02 0.01 0.00 0.00 0.00 0.00 0.00 0.00 0.00 0.00 0.00 0.00 0.00 0.00 0.00 0.00 0.00 0.00 0.00 0.00 0.00 0.00 0.00 0.00 0.00 0.00
0.00 0.00 0.01 0.01 0.00 0.01 0.00 0.00 0.01 0.02 0.04 0.05 0.11 0.15 0.11 0.04 0.01 0.02 0.02 0.01 0.00 0.00 0.00 0.00 0.00 0.00 0.00 0.00 0.00 0.00 0.00 0.00 0.00 0.00 0.00 0.00 0.00 0.00 0.00 0.00 0.00 0.00 0.00 0.00
0.00 0.00 0.02 0.02 0.02 0.01 0.01 0.01 0.01 0.02 0.06 0.09 0.07 0.06 0.04 0.01 0.00 0.01 0.01 0.01 0.01 0.00 0.00 0.00 0.00 0.00 0.00 0.00 0.00 0.00 0.00 0.00 0.00 0.00 0.00 0.00 0.00 0.00 0.00 0.00 0.00 0.00 0.00 0.00
0.00 0.01 0.03 0.03 0.02 0.01 0.01 0.01 0.00 0.01 0.11 0.10 0.05 0.03 0.02 0.01 0.01 0.00 0.00 0.01 0.01 0.01 0.01 0.01 0.00 0.00 0.00 0.00 0.00 0.00 0.00 0.00 0.00 0.00 0.00 0.00 0.00 0.00 0.00 0.00 0.00 0.00 0.00 0.00
0.00 0.00 0.00 0.00 0.00 0.00 0.00 0.00 0.00 0.01 0.03 0.02 0.01 0.01 0.01 0.00 0.01 0.00 0.00 0.00 0.00 0.00 0.01 0.01 0.00 0.00 0.00 0.00 0.00 0.00 0.00 0.00 0.00 0.00 0.00 0.00 0.00 0.00 0.00 0.00 0.00 0.00 0.00 0.00
0.00 0.00 0.00 0.00 0.00 0.00 0.00 0.00 0.00 0.00 0.00 0.00 0.00 0.00 0.00 0.00 0.00 0.00 0.00 0.00 0.00 0.00 0.00 0.00 0.00 0.00 0.00 0.00 0.00 0.01 0.00 0.00 0.00 0.01 0.01 0.00 0.00 0.00 0.00 0.00 0.00 0.00 0.00 0.00
0.00 0.00 0.00 0.00 0.00 0.00 0.00 0.00 0.00 0.00 0.00 0.00 0.00 0.00 0.00 0.00 0.00 0.00 0.00 0.00 0.00 0.00 0.00 0.00 0.00 0.00 0.00 0.00 0.00 0.01 0.01 0.01 0.01 0.01 0.01 0.01 0.02 0.02 0.02 0.02 0.02 0.02 0.02 0.02
0.00 0.00 0.00 0.00 0.00 0.00 0.00 0.00 0.00 0.00 0.00 0.00 0.00 0.00 0.00 0.00 0.00 0.00 0.00 0.00 0.00 0.00 0.00 0.00 0.00 0.00 0.00 0.00 0.00 0.01 0.01 0.01 0.02 0.02 0.02 0.02 0.03 0.04 0.05 0.05 0.06 0.07 0.07 0.07
0.00 0.00 0.00 0.00 0.00 0.00 0.00 0.00 0.00 0.00 0.00 0.00 0.00 0.00 0.00 0.00 0.00 0.00 0.00 0.00 0.00 0.00 0.00 0.00 0.00 0.00 0.00 0.00 0.00 0.00 0.01 0.02 0.02 0.02 0.02 0.02 0.03 0.04 0.06 0.07 0.08 0.09 0.10 0.11
0.00 0.00 0.00 0.00 0.00 0.00 0.00 0.00 0.00 0.00 0.00 0.00 0.00 0.00 0.00 0.00 0.00 0.00 0.00 0.00 0.00 0.00 0.00 0.00 0.00 0.00 0.00 0.00 0.00 0.00 0.00 0.01 0.02 0.02 0.02 0.02 0.02 0.03 0.04 0.04 0.05 0.07 0.09 0.11
MSLP
1017.08 1017.38 1017.56 1017.64 1017.65 1017.60 1017.51 1017.36 1017.12 1016.78 1016.29 1015.66 1014.87 1013.95 1012.95 1011.91 1010.90 1009.94 1009.08 1008.31 1007.64 1007.07 1006.57 1006.16 1005.85 1005.67 1005.65 1005.83 1006.22 1006.82 1007.61 1008.54 1009.55 1010.57 1011.56 1012.47 1013.28 1014.00 1014.65 1015.27 1015.88 1016.53 1017.21 1017.93
1017.11 1017.27 1017.33 1017.33 1017.31 1017.28 1017.26 1017.20 1017.07 1016.81 1016.37 1015.74 1014.90 1013.89 1012.77 1011.61 1010.47 1009.42 1008.49 1007.69 1007.02 1006.46 1005.98 1005.58 1005.25 1005.03 1004.95 1005.04 1005.34 1005.85 1006.57 1007.46 1008.46 1009.50 1010.54 1011.51 1012.39 1013.18 1013.89 1014.56 1015.21 1015.88 1016.58 1017.31
1016.91 1016.94 1016.90 1016.86 1016.84 1016.88 1016.95 1017.01 1016.99 1016.81 1016.42 1015.78 1014.88 1013.78 1012.54 1011.25 1010.00 1008.87 1007.89 1007.09 1006.45 1005.94 1005.51 1005.16 1004.85 1004.62 1004.50 1004.52 1004.73 1005.15 1005.78 1006.59 1007.53 1008.55 1009.58 1010.57 1011.48 1012.32 1013.07 1013.77 1014.46 1015.16 1015.88 1016.63
1016.51 1016.43 1016.33 1016.28 1016.31 1016.43 1016.62 1016.80 1016.88 1016.78 1016.42 1015.75 1014.79 1013.58 1012.22 1010.81 1009.47 1008.27 1007.28 1006.50 1005.91 1005.48 1005.14 1004.86 1004.62 1004.43 1004.30 1004.28 1004.42 1004.75 1005.28 1005.99 1006.85 1007.79 1008.76 1009.72 1010.62 1011.45 1012.21 1012.94 1013.65 1014.36 1015.10 1015.87
1016.01 1015.85 1015.72 1015.68 1015.77 1015.98 1016.27 1016.56 1016.73 1016.67 1016.32 1015.61 1014.58 1013.28 1011.81 1010.31 1008.89 1007.66 1006.66 1005.92 1005.41 1005.08 1004.85 1004.69 1004.54 1004.41 1004.32 1004.30 1004.40 1004.66 1005.09 1005.69 1006.43 1007.26 1008.13 1009.00 1009.83 1010.62 1011.36 1012.08 1012.79 1013.52 1014.28 1015.06
1015.49 1015.28 1015.14 1015.12 1015.27 1015.56 1015.93 1016.28 1016.49 1016.45 1016.08 1015.33 1014.23 1012.85 1011.31 1009.75 1008.30 1007.07 1006.10 1005.43 1005.00 1004.78 1004.68 1004.63 1004.60 1004.56 1004.53 1004.54 1004.64 1004.84 1005.19 1005.68 1006.28 1006.97 1007.70 1008.44 1009.17 1009.87 1010.55 1011.23 1011.93 1012.66 1013.42 1014.22
1015.03 1014.78 1014.63 1014.64 1014.82 1015.15 1015.55 1015.92 1016.13 1016.07 1015.65 1014.86 1013.72 1012.31 1010.76 1009.20 1007.77 1006.58 1005.68 1005.09 1004.76 1004.64 1004.66 1004.73 1004.81 1004.87 1004.91 1004.96 1005.06 1005.23 1005.51 1005.88 1006.35 1006.88 1007.45 1008.04 1008.63 1009.21 1009.80 1010.42 1011.08 1011.80 1012.57 1013.38
1014.62 1014.36 1014.21 1014.22 1014.41 1014.73 1015.11 1015.44 1015.60 1015.49 1015.04 1014.22 1013.08 1011.70 1010.20 1008.72 1007.39 1006.30 1005.50 1005.01 1004.78 1004.76 1004.86 1005.02 1005.18 1005.32 1005.42 1005.52 1005.62 1005.77 1005.98 1006.25 1006.58 1006.96 1007.36 1007.77 1008.20 1008.65 1009.14 1009.68 1010.29 1010.97 1011.73 1012.55
1014.27 1014.00 1013.84 1013.84 1013.99 1014.26 1014.57 1014.83 1014.91 1014.73 1014.25 1013.44 1012.36 1011.08 1009.72 1008.40 1007.24 1006.31 1005.66 1005.29 1005.16 1005.20 1005.36 1005.57 1005.76 1005.93 1006.06 1006.17 1006.27 1006.38 1006.52 1006.70 1006.90 1007.12 1007.35 1007.60 1007.87 1008.17 1008.54 1008.99 1009.53 1010.18 1010.91 1011.72
1013.92 1013.65 1013.49 1013.45 1013.55 1013.74 1013.95 1014.09 1014.08 1013.85 1013.36 1012.62 1011.66 1010.56 1009.42 1008.35 1007.42 1006.71 1006.24 1006.00 1005.95 1006.04 1006.20 1006.40 1006.57 1006.72 1006.82 1006.90 1006.96 1007.02 1007.09 1007.16 1007.24 1007.31 1007.39 1007.47 1007.58 1007.75 1007.99 1008.34 1008.81 1009.40 1010.10 1010.88
1013.58 1013.32 1013.14 1013.08 1013.11 1013.20 1013.29 1013.33 1013.24 1012.97 1012.52 1011.88 1011.10 1010.25 1009.41 1008.64 1008.01 1007.55 1007.28 1007.17 1007.18 1007.28 1007.40 1007.53 1007.62 1007.68 1007.71 1007.71 1007.70 1007.68 1007.65 1007.61 1007.56 1007.50 1007.42 1007.35 1007.32 1007.35 1007.47 1007.72 1008.11 1008.63 1009.27 1010.00
1013.26 1013.02 1012.85 1012.76 1012.73 1012.73 1012.73 1012.68 1012.53 1012.26 1011.87 1011.38 1010.83 1010.27 1009.75 1009.31 1009.00 1008.80 1008.72 1008.72 1008.78 1008.84 1008.89 1008.90 1008.87 1008.80 1008.70 1008.59 1008.46 1008.34 1008.20 1008.04 1007.86 1007.66 1007.44 1007.23 1007.05 1006.95 1006.96 1007.11 1007.40 1007.84 1008.41 1009.07
1013.05 1012.85 1012.70 1012.60 1012.54 1012.48 1012.41 1012.29 1012.11 1011.87 1011.57 1011.25 1010.94 1010.66 1010.46 1010.35 1010.32 1010.37 1010.45 1010.54 1010.60 1010.61 1010.55 1010.42 1010.22 1010.00 1009.75 1009.49 1009.24 1008.99 1008.73 1008.45 1008.14 1007.80 1007.45 1007.10 1006.79 1006.57 1006.46 1006.50 1006.70 1007.04 1007.52 1008.10
1013.07 1012.93 1012.82 1012.73 1012.66 1012.57 1012.46 1012.31 1012.12 1011.92 1011.72 1011.55 1011.45 1011.43 1011.50 1011.66 1011.86 1012.09 1012.29 1012.42 1012.46 1012.38 1012.20 1011.91 1011.56 1011.17 1010.77 1010.38 1010.00 1009.63 1009.25 1008.85 1008.42 1007.95 1007.46 1006.98 1006.54 1006.20 1005.98 1005.91 1006.00 1006.25 1006.64 1007.12
1013.44 1013.35 1013.29 1013.24 1013.17 1013.07 1012.94 1012.78 1012.60 1012.43 1012.31 1012.26 1012.32 1012.48 1012.75 1013.08 1013.43 1013.76 1014.01 1014.14 1014.12 1013.95 1013.64 1013.22 1012.73 1012.20 1011.68 1011.18 1010.70 1010.23 1009.75 1009.24 1008.69 1008.11 1007.49 1006.89 1006.33 1005.87 1005.53 1005.36 1005.35 1005.50 1005.79 1006.18
1014.22 1014.18 1014.16 1014.13 1014.08 1013.98 1013.84 1013.66 1013.48 1013.33 1013.24 1013.26 1013.40 1013.66 1014.01 1014.42 1014.83 1015.17 1015.40 1015.47 1015.37 1015.10 1014.69 1014.16 1013.57 1012.97 1012.38 1011.81 1011.27 1010.74 1010.19 1009.61 1008.97 1008.28 1007.56 1006.84 1006.17 1005.59 1005.15 1004.87 1004.76 1004.82 1005.02 1005.33
1015.39 1015.37 1015.37 1015.35 1015.29 1015.18 1015.01 1014.80 1014.60 1014.43 1014.34 1014.36 1014.50 1014.76 1015.10 1015.48 1015.85 1016.13 1016.28 1016.26 1016.07 1015.71 1015.22 1014.63 1014.00 1013.38 1012.78 1012.21 1011.67 1011.12 1010.55 1009.92 1009.23 1008.46 1007.65 1006.84 1006.06 1005.38 1004.84 1004.46 1004.26 1004.24 1004.36 1004.60
1016.81 1016.78 1016.76 1016.70 1016.60 1016.44 1016.23 1015.97 1015.71 1015.49 1015.35 1015.31 1015.39 1015.57 1015.82 1016.11 1016.36 1016.52 1016.55 1016.43 1016.14 1015.71 1015.18 1014.59 1013.98 1013.40 1012.85 1012.34 1011.85 1011.35 1010.80 1010.17 1009.45 1008.64 1007.77 1006.87 1006.01 1005.23 1004.60 1004.14 1003.86 1003.77 1003.83 1004.01
1018.24 1018.15 1018.06 1017.93 1017.75 1017.51 1017.21 1016.88 1016.55 1016.26 1016.04 1015.91 1015.88 1015.95 1016.07 1016.21 1016.32 1016.34 1016.24 1016.01 1015.66 1015.19 1014.66 1014.11 1013.57 1013.08 1012.64 1012.24 1011.85 1011.43 1010.94 1010.34 1009.63 1008.80 1007.88 1006.93 1006.00 1005.15 1004.43 1003.89 1003.55 1003.39 1003.40 1003.54
1019.41 1019.22 1019.01 1018.76 1018.47 1018.12 1017.73 1017.32 1016.91 1016.54 1016.24 1016.02 1015.89 1015.84 1015.84 1015.85 1015.81 1015.71 1015.50 1015.20 1014.79 1014.32 1013.83 1013.35 1012.92 1012.55 1012.24 1011.97 1011.71 1011.39 1010.98 1010.44 1009.75 1008.92 1007.99 1007.00 1006.01 1005.09 1004.31 1003.70 1003.29 1003.07 1003.03 1003.13
1020.05 1019.72 1019.38 1019.00 1018.58 1018.13 1017.64 1017.16 1016.69 1016.27 1015.92 1015.64 1015.45 1015.32 1015.23 1015.14 1015.01 1014.82 1014.54 1014.19 1013.78 1013.34 1012.91 1012.52 1012.20 1011.96 1011.79 1011.66 1011.51 1011.30 1010.97 1010.49 1009.83 1009.01 1008.07 1007.05 1006.02 1005.04 1004.20 1003.52 1003.05 1002.77 1002.68 1002.74
1020.00 1019.54 1019.05 1018.55 1018.02 1017.48 1016.94 1016.42 1015.94 1015.52 1015.17 1014.89 1014.69 1014.55 1014.42 1014.29 1014.12 1013.90 1013.60 1013.25 1012.86 1012.47 1012.11 1011.81 1011.60 1011.47 1011.41 1011.38 1011.33 1011.20 1010.93 1010.49 1009.87 1009.06 1008.11 1007.06 1006.00 1004.98 1004.07 1003.33 1002.79 1002.44 1002.29 1002.30
1019.21 1018.64 1018.06 1017.48 1016.89 1016.32 1015.78 1015.28 1014.84 1014.48 1014.19 1013.98 1013.84 1013.73 1013.64 1013.53 1013.38 1013.17 1012.90 1012.58 1012.23 1011.89 1011.60 1011.37 1011.24 1011.18 1011.19 1011.22 1011.21 1011.12 1010.88 1010.46 1009.84 1009.03 1008.07 1007.00 1005.91 1004.84 1003.88 1003.08 1002.46 1002.05 1001.82 1001.77
1017.81 1017.20 1016.59 1015.99 1015.42 1014.88 1014.41 1014.00 1013.67 1013.42 1013.25 1013.16 1013.12 1013.11 1013.10 1013.06 1012.96 1012.80 1012.58 1012.30 1012.00 1011.70 1011.45 1011.26 1011.15 1011.12 1011.13 1011.16 1011.15 1011.04 1010.78 1010.35 1009.71 1008.88 1007.91 1006.82 1005.69 1004.60 1003.59 1002.72 1002.04 1001.55 1001.24 1001.11
1016.04 1015.47 1014.91 1014.39 1013.92 1013.50 1013.16 1012.90 1012.72 1012.64 1012.62 1012.68 1012.77 1012.87 1012.96 1013.00 1012.97 1012.86 1012.68 1012.44 1012.16 1011.88 1011.63 1011.43 1011.29 1011.22 1011.18 1011.15 1011.07 1010.89 1010.57 1010.08 1009.40 1008.55 1007.55 1006.44 1005.30 1004.17 1003.13 1002.22 1001.48 1000.91 1000.53 1000.32
1014.26 1013.81 1013.40 1013.03 1012.73 1012.51 1012.35 1012.28 1012.29 1012.37 1012.52 1012.71 1012.91 1013.11 1013.28 1013.37 1013.38 1013.31 1013.14 1012.90 1012.61 1012.31 1012.01 1011.75 1011.53 1011.36 1011.21 1011.05 1010.85 1010.57 1010.15 1009.58 1008.84 1007.94 1006.92 1005.80 1004.65 1003.52 1002.46 1001.52 1000.74 1000.13 999.69 999.41
Thickness
5654 5640 5639 5652 5650 5647 5640 5634 5633 5646 5662 5652 5652 5661 5672 5685 5690 5698 5704 5706 5712 5721 5735 5739 5737 5729 5721 5717 5713 5710 5704 5698 5687 5677 5670 5663 5658 5654 5649 5646 5642 5636 5630 5624
5633 5631 5651 5651 5643 5635 5626 5618 5627 5641 5648 5640 5645 5658 5668 5677 5687 5699 5707 5712 5717 5721 5726 5733 5733 5721 5712 5710 5709 5707 5703 5696 5689 5683 5676 5668 5659 5651 5647 5641 5635 5630 5625 5619
5631 5641 5644 5635 5627 5622 5620 5617 5624 5630 5635 5631 5630 5649 5657 5675 5686 5694 5701 5708 5714 5712 5714 5721 5719 5713 5707 5705 5705 5705 5701 5693 5686 5678 5666 5656 5646 5640 5635 5631 5627 5623 5620 5615
5618 5629 5632 5623 5618 5616 5621 5626 5624 5620 5608 5605 5616 5632 5652 5669 5675 5683 5694 5701 5705 5705 5702 5702 5705 5707 5706 5706 5704 5700 5695 5688 5680 5671 5664 5658 5653 5650 5645 5638 5629 5622 5617 5612
5614 5618 5617 5613 5618 5617 5616 5620 5613 5609 5600 5592 5596 5604 5650 5654 5653 5668 5684 5693 5694 5691 5690 5693 5696 5699 5701 5699 5695 5692 5687 5681 5673 5666 5660 5654 5651 5646 5637 5627 5620 5612 5607 5603
5605 5609 5609 5611 5615 5612 5609 5605 5598 5583 5584 5584 5594 5602 5637 5640 5649 5660 5670 5673 5674 5675 5676 5680 5684 5686 5686 5683 5681 5679 5675 5670 5663 5657 5652 5647 5642 5633 5624 5618 5611 5603 5597 5593
5595 5598 5601 5602 5602 5601 5595 5585 5569 5569 5565 5582 5596 5598 5627 5641 5653 5657 5658 5656 5655 5652 5653 5658 5662 5667 5668 5666 5663 5662 5661 5657 5651 5646 5642 5638 5632 5627 5621 5614 5607 5600 5592 5588
5573 5583 5593 5591 5593 5589 5578 5574 5563 5555 5556 5573 5578 5587 5631 5644 5647 5645 5641 5638 5635 5634 5633 5637 5638 5638 5641 5643 5642 5642 5642 5641 5638 5635 5631 5625 5620 5617 5613 5606 5602 5596 5592 5587
5560 5568 5586 5583 5580 5580 5566 5563 5569 5554 5548 5546 5573 5589 5619 5635 5635 5634 5630 5625 5620 5618 5620 5620 5618 5614 5615 5615 5615 5617 5619 5618 5618 5617 5615 5612 5609 5606 5602 5597 5592 5587 5583 5577
5551 5548 5564 5564 5561 5563 5561 5555 5529 5537 5523 5526 5553 5575 5610 5627 5619 5614 5609 5604 5602 5604 5604 5601 5596 5591 5589 5587 5587 5589 5590 5591 5592 5593 5593 5595 5593 5592 5589 5585 5582 5578 5573 5568
5530 5521 5535 5538 5545 5551 5538 5535 5533 5524 5512 5510 5514 5554 5608 5605 5600 5588 5581 5578 5577 5575 5572 5567 5564 5564 5565 5566 5565 5566 5566 5567 5568 5570 5572 5575 5576 5573 5572 5571 5571 5569 5563 5558
5516 5505 5512 5520 5533 5536 5533 5531 5526 5515 5510 5509 5507 5524 5584 5582 5568 5549 5539 5535 5531 5529 5529 5531 5534 5537 5540 5542 5543 5544 5546 5547 5549 5553 5556 5560 5561 5560 5559 5560 5559 5555 5553 5548
5502 5496 5503 5508 5515 5509 5504 5507 5509 5505 5496 5497 5497 5508 5547 5539 5513 5495 5490 5488 5491 5495 5500 5505 5510 5514 5515 5516 5517 5520 5523 5526 5531 5536 5541 5546 5547 5547 5549 5550 5547 5543 5540 5537
5494 5487 5491 5498 5502 5495 5485 5484 5481 5475 5473 5478 5484 5490 5501 5491 5469 5458 5458 5460 5463 5466 5470 5474 5478 5483 5485 5488 5491 5494 5499 5503 5508 5516 5523 5529 5534 5537 5540 5539 5537 5534 5530 5526
5467 5467 5471 5472 5474 5469 5461 5458 5460 5458 5457 5451 5463 5470 5460 5431 5423 5423 5428 5432 5435 5438 5442 5445 5447 5452 5456 5461 5466 5469 5474 5478 5483 5491 5501 5509 5517 5522 5525 5526 5525 5522 5520 5519
5438 5433 5432 5433 5444 5439 5434 5445 5451 5452 5452 5451 5456 5435 5388 5396 5400 5403 5404 5407 5410 5412 5415 5418 5420 5423 5426 5430 5436 5442 5448 5451 5456 5463 5473 5484 5493 5500 5505 5508 5509 5508 5508 5504
5409 5410 5406 5403 5417 5399 5391 5423 5430 5426 5415 5414 5412 5382 5374 5376 5381 5383 5382 5384 5387 5388 5389 5390 5392 5395 5397 5401 5405 5412 5418 5422 5428 5436 5446 5456 5466 5475 5482 5487 5489 5492 5492 5488
5394 5388 5379 5369 5360 5353 5398 5388 5392 5388 5377 5375 5365 5357 5357 5358 5363 5363 5362 5361 5362 5363 5363 5364 5365 5368 5370 5374 5379 5384 5390 5395 5402 5411 5420 5429 5438 5448 5457 5463 5468 5471 5470 5471
5384 5375 5350 5338 5332 5343 5358 5362 5362 5356 5350 5345 5340 5337 5336 5337 5339 5344 5345 5341 5338 5337 5337 5337 5336 5339 5343 5348 5352 5356 5363 5369 5377 5386 5395 5403 5411 5421 5431 5439 5445 5449 5449 5450
5362 5358 5349 5330 5324 5321 5347 5341 5346 5335 5320 5318 5313 5311 5311 5311 5309 5320 5327 5320 5316 5314 5312 5310 5311 5313 5317 5322 5324 5328 5335 5342 5350 5358 5367 5375 5383 5392 5403 5413 5420 5425 5427 5428
5322 5308 5308 5301 5288 5291 5321 5325 5328 5303 5303 5298 5295 5294 5293 5291 5291 5299 5304 5299 5295 5292 5291 5289 5289 5292 5295 5296 5296 5300 5307 5313 5320 5328 5337 5346 5355 5364 5375 5387 5394 5399 5402 5404
5300 5287 5266 5254 5253 5277 5309 5308 5302 5290 5295 5290 5286 5285 5282 5280 5280 5278 5277 5276 5274 5270 5270 5268 5266 5271 5275 5273 5269 5274 5280 5284 5289 5297 5307 5317 5328 5339 5349 5359 5368 5374 5379 5381
5282 5283 5262 5258 5271 5295 5298 5295 5294 5287 5280 5281 5278 5277 5270 5265 5263 5260 5256 5254 5253 5251 5249 5245 5239 5243 5252 5250 5244 5246 5254 5253 5258 5266 5278 5289 5301 5315 5324 5333 5345 5351 5356 5362
5273 5278 5267 5260 5278 5288 5286 5284 5282 5277 5271 5271 5267 5261 5253 5245 5242 5238 5234 5232 5231 5227 5223 5218 5214 5215 5224 5225 5219 5217 5219 5220 5224 5234 5247 5260 5273 5290 5304 5314 5323 5332 5339 5344
5266 5264 5259 5261 5275 5272 5273 5275 5272 5268 5263 5258 5252 5243 5234 5223 5219 5214 5208 5206 5204 5203 5202 5195 5190 5190 5195 5197 5195 5191 5185 5185 5191 5203 5217 5230 5244 5261 5280 5294 5305 5314 5325 5330
5277 5265 5255 5256 5269 5259 5261 5266 5261 5252 5247 5238 5228 5220 5212 5201 5194 5190 5187 5186 5182 5180 5178 5172 5168 5165 5166 5165 5167 5164 5157 5154 5159 5173 5189 5201 5216 5232 5250 5269 5284 5297 5306 5313